[keps] orb09036.amsat
Ray Hoad
r.hoad at att.net
Thu Feb 5 19:42:59 PST 2009
SB KEPS @ AMSAT $ORB09036.O
Orbital Elements 09036.OSCAR
HR AMSAT ORBITAL ELEMENTS FOR OSCAR SATELLITES
FROM WA5QGD FORT WORTH,TX February 5, 2009
Send Subscribe/unsubscribe to KEPS at
http://www.amsat.org/mailman/listinfo/keps
BID: ORB09036.O
TO ALL RADIO AMATEURS BT
Satellite: AO-07
Catalog number: 07530
Epoch time: 09036.64763188
Element set: 395
Inclination: 101.4421 deg
RA of node: 066.0898 deg
Eccentricity: 0.0011842
Arg of perigee: 165.6894 deg
Mean anomaly: 194.4511 deg
Mean motion: 12.53575183 rev/day
Decay rate: -2.7e-07 rev/day^2
Epoch rev: 56623
Checksum: 313
Satellite: AO-10
Catalog number: 14129
Epoch time: 09035.19866765
Element set: 617
Inclination: 026.0091 deg
RA of node: 173.0627 deg
Eccentricity: 0.5969667
Arg of perigee: 195.3590 deg
Mean anomaly: 132.9151 deg
Mean motion: 02.05867543 rev/day
Decay rate: 1.33e-06 rev/day^2
Epoch rev: 19288
Checksum: 328
Satellite: UO-11
Catalog number: 14781
Epoch time: 09035.67540851
Element set: 0879
Inclination: 098.1280 deg
RA of node: 078.8132 deg
Eccentricity: 0.0009794
Arg of perigee: 050.1518 deg
Mean anomaly: 310.0574 deg
Mean motion: 14.79692050 rev/day
Decay rate: -2.7e-07 rev/day^2
Epoch rev: 33823
Checksum: 309
Satellite: RS-15
Catalog number: 23439
Epoch time: 09035.74065071
Element set: 0236
Inclination: 064.8160 deg
RA of node: 118.9956 deg
Eccentricity: 0.0145907
Arg of perigee: 077.3647 deg
Mean anomaly: 284.3546 deg
Mean motion: 11.27553148 rev/day
Decay rate: -3.9e-07 rev/day^2
Epoch rev: 58118
Checksum: 325
Satellite: FO-29
Catalog number: 24278
Epoch time: 09035.84979680
Element set: 0981
Inclination: 098.5730 deg
RA of node: 287.5344 deg
Eccentricity: 0.0350335
Arg of perigee: 333.3253 deg
Mean anomaly: 025.0232 deg
Mean motion: 13.52942400 rev/day
Decay rate: -8.8e-07 rev/day^2
Epoch rev: 61585
Checksum: 323
Satellite: SO-33
Catalog number: 25509
Epoch time: 09035.46038307
Element set: 0384
Inclination: 031.4345 deg
RA of node: 082.9957 deg
Eccentricity: 0.0355020
Arg of perigee: 257.9932 deg
Mean anomaly: 098.0687 deg
Mean motion: 14.28238811 rev/day
Decay rate: -8.9e-07 rev/day^2
Epoch rev: 53684
Checksum: 333
Satellite: AO-40
Catalog number: 26609
Epoch time: 09035.83373263
Element set: 188
Inclination: 008.6494 deg
RA of node: 034.4596 deg
Eccentricity: 0.7947808
Arg of perigee: 172.5009 deg
Mean anomaly: 217.8958 deg
Mean motion: 01.25583595 rev/day
Decay rate: -3.5e-07 rev/day^2
Epoch rev: 3796
Checksum: 353
Satellite: VO-52
Catalog number: 28650
Epoch time: 09035.67648146
Element set: 0147
Inclination: 097.7604 deg
RA of node: 101.5337 deg
Eccentricity: 0.0028353
Arg of perigee: 102.1683 deg
Mean anomaly: 258.2747 deg
Mean motion: 14.81549986 rev/day
Decay rate: 1.92e-06 rev/day^2
Epoch rev: 20302
Checksum: 313
Satellite: PO-63
Catalog number: 29712
Epoch time: 09036.76489375
Element set: 213
Inclination: 097.8470 deg
RA of node: 096.2180 deg
Eccentricity: 0.0014101
Arg of perigee: 347.1745 deg
Mean anomaly: 012.9102 deg
Mean motion: 14.80431900 rev/day
Decay rate: 3.88e-06 rev/day^2
Epoch rev: 11202
Checksum: 282
/EX
SB KEPS @ AMSAT $ORB09036.D
Orbital Elements 09036.MICROS
HR AMSAT ORBITAL ELEMENTS FOR THE MICROSATS
FROM WA5QGD FORT WORTH,TX February 5, 2009
Send Subscribe/unsubscribe to KEPS at
http://www.amsat.org/mailman/listinfo/keps
BID: ORB09036.D
TO ALL RADIO AMATEURS BT
Satellite: AO-16
Catalog number: 20439
Epoch time: 09035.63890401
Element set: 527
Inclination: 098.2624 deg
RA of node: 010.1913 deg
Eccentricity: 0.0010481
Arg of perigee: 200.9917 deg
Mean anomaly: 159.0845 deg
Mean motion: 14.31815006 rev/day
Decay rate: -5.0e-08 rev/day^2
Epoch rev: 99418
Checksum: 285
Satellite: LO-19
Catalog number: 20442
Epoch time: 09034.39011285
Element set: 0451
Inclination: 098.2272 deg
RA of node: 016.7686 deg
Eccentricity: 0.0011596
Arg of perigee: 201.4756 deg
Mean anomaly: 158.5938 deg
Mean motion: 14.32051601 rev/day
Decay rate: -4.1e-07 rev/day^2
Epoch rev: 99416
Checksum: 296
Satellite: AO-27
Catalog number: 22825
Epoch time: 09036.81388492
Element set: 170
Inclination: 098.4196 deg
RA of node: 354.4919 deg
Eccentricity: 0.0007504
Arg of perigee: 294.2381 deg
Mean anomaly: 065.8019 deg
Mean motion: 14.29258126 rev/day
Decay rate: 5.3e-07 rev/day^2
Epoch rev: 80114
Checksum: 316
Satellite: IO-26
Catalog number: 22826
Epoch time: 09035.84724059
Element set: 0889
Inclination: 098.4135 deg
RA of node: 354.3648 deg
Eccentricity: 0.0008137
Arg of perigee: 292.8941 deg
Mean anomaly: 067.1392 deg
Mean motion: 14.29508485 rev/day
Decay rate: -5.0e-08 rev/day^2
Epoch rev: 80110
Checksum: 328
Satellite: GO-32
Catalog number: 25397
Epoch time: 09035.61521771
Element set: 0816
Inclination: 098.3407 deg
RA of node: 064.9769 deg
Eccentricity: 0.0000330
Arg of perigee: 295.8469 deg
Mean anomaly: 064.2682 deg
Mean motion: 14.23154592 rev/day
Decay rate: 5.0e-08 rev/day^2
Epoch rev: 54927
Checksum: 322
Satellite: NO-44
Catalog number: 26931
Epoch time: 09035.49500491
Element set: 0092
Inclination: 067.0512 deg
RA of node: 046.1916 deg
Eccentricity: 0.0005621
Arg of perigee: 260.8564 deg
Mean anomaly: 099.1899 deg
Mean motion: 14.29545348 rev/day
Decay rate: -2.51e-06 rev/day^2
Epoch rev: 38361
Checksum: 312
Satellite: SO-50
Catalog number: 27607
Epoch time: 09035.58849474
Element set: 0807
Inclination: 064.5583 deg
RA of node: 067.8129 deg
Eccentricity: 0.0079843
Arg of perigee: 234.2324 deg
Mean anomaly: 125.1345 deg
Mean motion: 14.71412644 rev/day
Decay rate: -9.1e-07 rev/day^2
Epoch rev: 32916
Checksum: 321
Satellite: CO-55
Catalog number: 27844
Epoch time: 09035.65243590
Element set: 504
Inclination: 098.7160 deg
RA of node: 046.6774 deg
Eccentricity: 0.0010010
Arg of perigee: 161.9687 deg
Mean anomaly: 198.1849 deg
Mean motion: 14.20620374 rev/day
Decay rate: 1.0e-07 rev/day^2
Epoch rev: 29044
Checksum: 300
Satellite: CO-57
Catalog number: 27848
Epoch time: 09036.52734018
Element set: 451
Inclination: 098.7172 deg
RA of node: 046.6051 deg
Eccentricity: 0.0009685
Arg of perigee: 163.5682 deg
Mean anomaly: 196.5806 deg
Mean motion: 14.20425142 rev/day
Decay rate: 1.0e-08 rev/day^2
Epoch rev: 29053
Checksum: 306
Satellite: AO-51
Catalog number: 28375
Epoch time: 09035.58454181
Element set: 309
Inclination: 098.0564 deg
RA of node: 052.8899 deg
Eccentricity: 0.0083463
Arg of perigee: 167.0833 deg
Mean anomaly: 193.2519 deg
Mean motion: 14.40632051 rev/day
Decay rate: -.00000000 rev/day^2
Epoch rev: 24186
Checksum: 302
Satellite: CO-56
Catalog number: 28941
Epoch time: 09036.72226953
Element set: 791
Inclination: 098.1247 deg
RA of node: 188.1095 deg
Eccentricity: 0.0122305
Arg of perigee: 264.7268 deg
Mean anomaly: 094.0118 deg
Mean motion: 15.70609689 rev/day
Decay rate: 4.5787e-04 rev/day^2
Epoch rev: 16652
Checksum: 350
Satellite: CP3
Catalog number: 31128
Epoch time: 09036.39572542
Element set: 548
Inclination: 098.0100 deg
RA of node: 095.5878 deg
Eccentricity: 0.0102772
Arg of perigee: 334.2260 deg
Mean anomaly: 025.3837 deg
Mean motion: 14.52015428 rev/day
Decay rate: -4.8e-07 rev/day^2
Epoch rev: 9577
Checksum: 300
Satellite: CP4
Catalog number: 31132
Epoch time: 09035.16418389
Element set: 0533
Inclination: 098.0150 deg
RA of node: 097.7421 deg
Eccentricity: 0.0084912
Arg of perigee: 328.4478 deg
Mean anomaly: 031.1642 deg
Mean motion: 14.55180658 rev/day
Decay rate: 6.1e-07 rev/day^2
Epoch rev: 09568
Checksum: 300
Satellite: CO-65
Catalog number: 32785
Epoch time: 09035.33796112
Element set: 0290
Inclination: 097.9640 deg
RA of node: 100.2969 deg
Eccentricity: 0.0016101
Arg of perigee: 101.5492 deg
Mean anomaly: 258.7532 deg
Mean motion: 14.81445366 rev/day
Decay rate: 2.15e-06 rev/day^2
Epoch rev: 04177
Checksum: 300
/EX
SB KEPS @ AMSAT $ORB09036.W
Orbital Elements 09036.WEATHER
HR AMSAT ORBITAL ELEMENTS FOR WEATHER SATELLITES
FROM WA5QGD FORT WORTH,TX February 5, 2009
Send Subscribe/unsubscribe to KEPS at
http://www.amsat.org/mailman/listinfo/keps
BID: ORB09036.W
TO ALL RADIO AMATEURS BT
Satellite: NOAA-10
Catalog number: 16969
Epoch time: 09035.60177696
Element set: 0489
Inclination: 098.7061 deg
RA of node: 062.8878 deg
Eccentricity: 0.0011870
Arg of perigee: 220.7694 deg
Mean anomaly: 139.2613 deg
Mean motion: 14.27378977 rev/day
Decay rate: -5.6e-07 rev/day^2
Epoch rev: 16459
Checksum: 357
Satellite: NOAA-11
Catalog number: 19531
Epoch time: 09035.68502117
Element set: 0502
Inclination: 098.7863 deg
RA of node: 127.6832 deg
Eccentricity: 0.0012084
Arg of perigee: 123.6169 deg
Mean anomaly: 236.6174 deg
Mean motion: 14.14887258 rev/day
Decay rate: -2.06e-06 rev/day^2
Epoch rev: 05078
Checksum: 304
Satellite: NOAA-12
Catalog number: 21263
Epoch time: 09035.94547031
Element set: 0014
Inclination: 098.7730 deg
RA of node: 043.9397 deg
Eccentricity: 0.0012406
Arg of perigee: 165.8459 deg
Mean anomaly: 194.3071 deg
Mean motion: 14.25565191 rev/day
Decay rate: -.00000000 rev/day^2
Epoch rev: 92155
Checksum: 282
Satellite: MET-3/5
Catalog number: 21655
Epoch time: 09035.96296614
Element set: 0570
Inclination: 082.5533 deg
RA of node: 299.9204 deg
Eccentricity: 0.0013712
Arg of perigee: 146.4617 deg
Mean anomaly: 213.7375 deg
Mean motion: 13.17018261 rev/day
Decay rate: 5.1e-07 rev/day^2
Epoch rev: 84022
Checksum: 294
Satellite: MET-2/21
Catalog number: 22782
Epoch time: 09035.77206813
Element set: 370
Inclination: 082.5472 deg
RA of node: 287.0584 deg
Eccentricity: 0.0022607
Arg of perigee: 001.9864 deg
Mean anomaly: 358.1369 deg
Mean motion: 13.83633785 rev/day
Decay rate: -8.2e-07 rev/day^2
Epoch rev: 77929
Checksum: 332
Satellite: OKEAN-4
Catalog number: 23317
Epoch time: 09035.69071389
Element set: 0821
Inclination: 082.5385 deg
RA of node: 098.1400 deg
Eccentricity: 0.0023991
Arg of perigee: 081.6825 deg
Mean anomaly: 278.7112 deg
Mean motion: 14.82672724 rev/day
Decay rate: 2.56e-06 rev/day^2
Epoch rev: 77273
Checksum: 318
